Location: Antoign�
(47.0844°N, 0.1131°W)
Time: 23:49:33
(UTC+00:00)

Cosmos 1066 Rocket - Pass Details

Date: 03 March 2021
Orbit: 799 x 894 km, 81.2° (Epoch: 20 April)

Event Time Altitude Azimuth Distance (km) Brightness Sun altitude
Rises 19:35:06 0° 352° (N) 3,437 7.6 -18.8°
Reaches altitude 10° 19:37:35 10° 356° (N) 2,511 6.8 -19.2°
Maximum altitude 19:43:12 56° 75° (ENE) 1,042 4.3 -20.1°
Enters shadow 19:45:37 33° 136° (SE) 1,438 4.9 -20.5°
